SWA2136 KTPA-KFLL

Flight info

Callsign SWA2136
Flight time 0h 34m
Altitude 25000
Route GANDY8 SABEE TEEKY4
Aircraft B738/M-SDE2E3GIJ4RWZ/LB1D1

Departure

Time 2026-04-30 18:47
Airport Tampa International Airport (KTPA)

Arrival

Time 2026-04-30 19:22
Airport Fort Lauderdale Hollywood International Airport (KFLL)
Time Latitude Longitude Altitude Speed Heading
2026-04-30 18:15 27.98371 -82.53151 42 ft 0 kts 228°
2026-04-30 18:36 27.98393 -82.53123 40 ft 3 kts 229°
2026-04-30 18:36 27.98407 -82.53099 40 ft 4 kts 269°
2026-04-30 18:36 27.98388 -82.53068 40 ft 0 kts 317°
2026-04-30 18:40 27.98394 -82.53074 40 ft 5 kts 317°
2026-04-30 18:41 27.98444 -82.53127 42 ft 12 kts 317°
2026-04-30 18:41 27.98528 -82.53153 43 ft 14 kts 347°
2026-04-30 18:41 27.98568 -82.53238 49 ft 13 kts 272°
2026-04-30 18:41 27.98571 -82.53345 57 ft 15 kts 272°
2026-04-30 18:42 27.98574 -82.53457 59 ft 14 kts 272°
2026-04-30 18:42 27.98582 -82.53733 46 ft 23 kts 271°
2026-04-30 18:42 27.98585 -82.53852 47 ft 23 kts 272°
2026-04-30 18:45 27.99343 -82.54025 45 ft 0 kts 295°
2026-04-30 18:45 27.99349 -82.54049 45 ft 8 kts 270°
2026-04-30 18:46 27.99349 -82.54117 45 ft 9 kts 269°
2026-04-30 18:46 27.99321 -82.54137 45 ft 5 kts 178°
2026-04-30 18:46 27.99286 -82.54137 45 ft 5 kts 180°
2026-04-30 18:46 27.99085 -82.54144 46 ft 66 kts 183°
2026-04-30 18:47 27.98375 -82.54167 50 ft 136 kts 181°
2026-04-30 18:47 27.97310 -82.54182 453 ft 155 kts 184°
2026-04-30 18:47 27.96185 -82.54117 1116 ft 173 kts 183°
2026-04-30 18:47 27.94953 -82.54299 1643 ft 182 kts 201°
2026-04-30 18:48 27.93766 -82.54779 2412 ft 177 kts 204°
2026-04-30 18:48 27.92563 -82.55254 2978 ft 189 kts 203°
2026-04-30 18:48 27.91292 -82.55796 3477 ft 199 kts 205°
2026-04-30 18:48 27.89994 -82.56383 4001 ft 203 kts 205°
2026-04-30 18:49 27.88582 -82.56844 4223 ft 228 kts 185°
2026-04-30 18:49 27.86912 -82.56824 4436 ft 253 kts 183°
2026-04-30 18:49 27.85084 -82.56868 4877 ft 267 kts 185°
2026-04-30 18:49 27.83206 -82.56965 5634 ft 274 kts 186°
2026-04-30 18:50 27.81303 -82.57091 6512 ft 279 kts 187°
2026-04-30 18:50 27.79346 -82.57231 7340 ft 284 kts 187°
2026-04-30 18:50 27.77355 -82.57356 8188 ft 290 kts 182°
2026-04-30 18:50 27.75360 -82.56830 9030 ft 301 kts 161°
2026-04-30 18:51 27.73416 -82.55892 9893 ft 307 kts 160°
2026-04-30 18:51 27.71420 -82.54915 10454 ft 323 kts 160°
2026-04-30 18:51 27.69268 -82.53872 10650 ft 349 kts 160°
2026-04-30 18:51 27.66981 -82.52771 11124 ft 363 kts 160°
2026-04-30 18:52 27.64634 -82.51645 11876 ft 368 kts 160°
2026-04-30 18:52 27.62268 -82.50517 12714 ft 370 kts 160°
2026-04-30 18:52 27.59883 -82.49385 13495 ft 374 kts 160°
2026-04-30 18:52 27.57465 -82.48240 14185 ft 379 kts 160°
2026-04-30 18:53 27.55059 -82.46963 14816 ft 386 kts 156°
2026-04-30 18:53 27.52664 -82.45537 15442 ft 392 kts 155°
2026-04-30 18:53 27.50251 -82.44052 16097 ft 397 kts 154°
2026-04-30 18:53 27.47812 -82.42549 16684 ft 403 kts 154°
2026-04-30 18:54 27.45330 -82.41033 17249 ft 409 kts 155°
2026-04-30 18:54 27.42805 -82.39504 17865 ft 414 kts 155°
2026-04-30 18:54 27.40282 -82.37985 18439 ft 418 kts 155°
2026-04-30 18:54 27.37699 -82.36435 18964 ft 422 kts 155°
2026-04-30 18:55 27.35094 -82.34874 19512 ft 425 kts 155°
2026-04-30 18:55 27.29833 -82.31724 20622 ft 431 kts 155°
2026-04-30 18:55 27.27173 -82.30133 21151 ft 434 kts 155°
2026-04-30 18:56 27.21800 -82.26922 22141 ft 441 kts 154°
2026-04-30 18:56 27.19083 -82.25298 22625 ft 444 kts 154°
2026-04-30 18:56 27.16340 -82.23659 23090 ft 447 kts 154°
2026-04-30 18:57 27.10806 -82.20356 23937 ft 453 kts 154°
2026-04-30 18:57 27.07991 -82.18903 24381 ft 449 kts 166°
2026-04-30 18:57 27.04952 -82.18237 24889 ft 444 kts 174°
2026-04-30 18:58 26.98723 -82.17162 24996 ft 461 kts 174°
2026-04-30 18:58 26.95535 -82.16579 24996 ft 465 kts 174°
2026-04-30 18:58 26.92349 -82.15972 24982 ft 464 kts 173°
2026-04-30 18:59 26.85989 -82.14732 24990 ft 463 kts 173°
2026-04-30 19:00 26.76969 -82.11218 24994 ft 472 kts 139°
2026-04-30 19:00 26.74802 -82.08455 24995 ft 474 kts 123°
2026-04-30 19:00 26.72347 -82.01641 24995 ft 473 kts 107°
2026-04-30 19:01 26.70391 -81.94721 24644 ft 459 kts 107°
2026-04-30 19:01 26.69420 -81.91357 24412 ft 450 kts 107°
2026-04-30 19:02 26.67475 -81.84786 23968 ft 441 kts 108°
2026-04-30 19:02 26.65526 -81.78293 23507 ft 439 kts 108°
2026-04-30 19:03 26.63599 -81.71890 22591 ft 432 kts 107°
2026-04-30 19:03 26.61696 -81.65569 21675 ft 426 kts 107°
2026-04-30 19:04 26.59299 -81.59607 20728 ft 420 kts 128°
2026-04-30 19:04 26.55761 -81.54518 19814 ft 416 kts 128°
2026-04-30 19:05 26.52255 -81.49409 18879 ft 413 kts 128°
2026-04-30 19:05 26.48827 -81.44339 17939 ft 410 kts 127°
2026-04-30 19:06 26.45425 -81.39292 16988 ft 404 kts 127°
2026-04-30 19:06 26.43737 -81.36790 16567 ft 401 kts 128°
2026-04-30 19:06 26.40417 -81.31908 15712 ft 394 kts 129°
2026-04-30 19:07 26.36951 -81.27281 14876 ft 387 kts 131°
2026-04-30 19:07 26.35213 -81.25002 14438 ft 385 kts 131°
2026-04-30 19:08 26.31777 -81.20444 13538 ft 381 kts 131°
2026-04-30 19:08 26.28402 -81.15940 12622 ft 375 kts 131°
2026-04-30 19:08 26.26724 -81.13723 12193 ft 372 kts 131°
2026-04-30 19:09 26.23409 -81.09367 11331 ft 362 kts 131°
2026-04-30 19:09 26.21803 -81.07257 10922 ft 350 kts 131°
2026-04-30 19:09 26.20252 -81.05217 10535 ft 340 kts 131°
2026-04-30 19:10 26.17520 -81.01627 10271 ft 321 kts 131°
2026-04-30 19:10 26.14813 -80.97789 9951 ft 310 kts 115°
2026-04-30 19:11 26.14236 -80.95483 9596 ft 310 kts 99°
2026-04-30 19:11 26.13487 -80.90738 8825 ft 312 kts 99°
2026-04-30 19:11 26.13110 -80.88357 8436 ft 312 kts 100°
2026-04-30 19:12 26.12723 -80.85976 8053 ft 313 kts 100°
2026-04-30 19:12 26.12329 -80.83592 7679 ft 313 kts 101°
2026-04-30 19:12 26.11933 -80.81209 7293 ft 314 kts 101°
2026-04-30 19:13 26.11206 -80.76498 6803 ft 302 kts 99°
2026-04-30 19:13 26.10609 -80.72088 6443 ft 275 kts 99°
2026-04-30 19:13 26.10324 -80.69998 6307 ft 272 kts 99°
2026-04-30 19:14 26.10039 -80.67917 6159 ft 273 kts 99°
2026-04-30 19:14 26.09750 -80.65824 6002 ft 274 kts 99°
2026-04-30 19:14 26.09459 -80.63726 5844 ft 275 kts 100°
2026-04-30 19:14 26.09170 -80.61645 5698 ft 276 kts 99°
2026-04-30 19:15 26.08877 -80.59532 5530 ft 277 kts 99°
2026-04-30 19:15 26.08294 -80.55351 5213 ft 271 kts 100°
2026-04-30 19:15 26.08056 -80.53281 5072 ft 271 kts 96°
2026-04-30 19:16 26.07950 -80.51181 4913 ft 271 kts 92°
2026-04-30 19:16 26.07917 -80.49082 4751 ft 272 kts 91°
2026-04-30 19:16 26.07892 -80.44986 4410 ft 255 kts 91°
2026-04-30 19:17 26.07878 -80.43054 4260 ft 244 kts 91°
2026-04-30 19:17 26.07848 -80.39289 3858 ft 245 kts 92°
2026-04-30 19:17 26.07834 -80.37397 3534 ft 243 kts 92°
2026-04-30 19:18 26.07811 -80.34299 3026 ft 239 kts 92°
2026-04-30 19:18 26.07793 -80.31840 2598 ft 234 kts 92°
2026-04-30 19:18 26.07782 -80.30083 2291 ft 219 kts 92°
2026-04-30 19:19 26.07771 -80.28456 2061 ft 202 kts 92°
2026-04-30 19:19 26.07761 -80.26933 1808 ft 192 kts 93°
2026-04-30 19:19 26.07742 -80.24102 1321 ft 175 kts 94°
2026-04-30 19:20 26.07734 -80.22817 1109 ft 161 kts 93°
2026-04-30 19:20 26.07725 -80.21582 921 ft 157 kts 94°
2026-04-30 19:20 26.07711 -80.19198 519 ft 147 kts 95°
2026-04-30 19:21 26.07703 -80.18068 288 ft 146 kts 94°
2026-04-30 19:21 26.07696 -80.15851 24 ft 129 kts 94°
2026-04-30 19:22 26.07646 -80.14654 18 ft 27 kts 113°
2026-04-30 19:22 26.07486 -80.14457 15 ft 5 kts 82°
2026-04-30 19:23 26.07484 -80.14279 15 ft 15 kts 92°
2026-04-30 19:24 26.07484 -80.14007 15 ft 17 kts 91°
2026-04-30 19:24 26.07477 -80.13876 16 ft 17 kts 100°
2026-04-30 19:24 26.07422 -80.13824 15 ft 3 kts 206°
2026-04-30 19:25 26.07413 -80.13829 15 ft 0 kts 207°